Tracking 20083 objects as of 9-Dec-2019
HD Live streaming from Space Station
objects crossing your sky now

COSMOS 1275 DEB

Track COSMOS 1275 DEB now!
10-day predictions


NORAD ID: 42175
Int'l Code: 1981-053SP
Perigee: 976.8 km
Apogee: 1,188.9 km
Inclination: 83.0 °
Period: 106.7 minutes
Semi major axis: 7453 km
RCS: Unknown
Launch date: June 4, 1981
Source: Commonwealth of Independent States (former USSR) (CIS)
Launch site: PLESETSK MISSILE AND SPACE COMPLEX (PKMTR)

Note: This is SATELLITE DEBRIS
aabbcc
Your satellite tracking list
Your tracking list is empty




NASA's NSSDC Master Catalog

Two Line Element Set (TLE):
1 42175U 81053SP  19341.46872567  .00000026  00000-0  15732-4 0  9999
2 42175  83.0323  54.7063 0142291 122.1646 249.9116 13.49068871818709
Source of the keplerian elements: AFSPC